Flag for Netherlands Weather past 2 weeks in Amsterdam, Netherlands

Now
73 °F

Passing clouds.


Feels Like: 76 °F
Forecast: 63 / 80 °F
Wind: 7 mph from South

Location: Amsterdam Schiphol Airport

Current Time: Aug 1, 2014 at 11:52:47 AM

Latest Report: Aug 1, 2014 at 11:25 AM


Visibility: N/A

Pressure: 29.83 "Hg

Humidity: 65%

Dew point: 61 °F

Location of AmsterdamLocation

Historic Weather in Amsterdam — Graph

°F

Amsterdam temperature yesterday

Maximum temperature yesterday: 77 °F (at 1:55 PM)
Minimum temperature yesterday: 55 °F (at 3:55 AM)
Average temperature yesterday: 67 °F

Past Weeks' High & Low Weather Summary

 TemperatureHumidityPressure
High93 °F (Jul 19, 3:55 PM)100% (Jul 21, 1:25 AM)30.15 "Hg (Jul 21, 1:25 AM)
Low55 °F (Jul 31, 3:55 AM)30% (Jul 19, 3:55 PM)29.77 "Hg (Jul 19, 5:25 PM)
Average70 °F78%29.95 "Hg
* Reported Jul 17 10:25 AM — Aug 1 10:55 AM, Amsterdam, Weather by CustomWeather, © 2014

Note: Actual official high and low records may vary slightly from our data, if they occured in-between our weather recording intervals... More about our weather records

Advertising

Amsterdam weather history for previous 24 hours

 ConditionsComfort  
Time TempWeatherWind HumidityBarometerVisibility
10:55 AM
Aug 1
72 °FPassing clouds.6 mph69%29.86 "HgN/A
10:25 AM72 °FPassing clouds.5 mph69%29.86 "HgN/A
9:55 AM70 °FPassing clouds.7 mph69%29.86 "HgN/A
9:25 AM68 °FPassing clouds.6 mph73%29.86 "HgN/A
8:55 AM68 °FPassing clouds.5 mph83%29.86 "HgN/A
8:25 AM66 °FSunny.7 mph88%29.86 "Hg10 mi
7:55 AM64 °FPassing clouds.3 mph94%29.86 "HgN/A
7:25 AM63 °FSunny.2 mph94%29.86 "Hg10 mi
6:55 AM61 °FClear.3 mph94%29.86 "Hg10 mi
6:25 AM61 °FFog.5 mph94%29.86 "HgN/A
5:55 AM61 °FFog.5 mph94%29.86 "HgN/A
5:25 AM61 °FClear.5 mph94%29.86 "Hg10 mi
4:55 AM61 °FClear.5 mph88%29.86 "Hg10 mi
4:25 AM61 °FClear.3 mph94%29.89 "Hg10 mi
3:55 AM61 °FClear.6 mph88%29.89 "Hg10 mi
3:25 AM61 °FClear.5 mph88%29.89 "Hg10 mi
2:55 AM61 °FClear.6 mph94%29.89 "Hg10 mi
2:25 AM61 °FClear.6 mph94%29.89 "Hg10 mi
1:55 AM61 °FClear.2 mph94%29.89 "Hg10 mi
1:25 AM63 °FPassing clouds.3 mph88%29.89 "HgN/A
12:55 AM63 °FClear.3 mph88%29.89 "Hg10 mi
12:25 AM64 °FClear.3 mph83%29.89 "Hg10 mi
11:55 PM
Jul 31
64 °FPassing clouds.3 mph78%29.92 "HgN/A
11:25 PM66 °FPassing clouds.7 mph73%29.92 "HgN/A
10:55 PM66 °FClear.5 mph68%29.92 "Hg10 mi
9:55 PM68 °FPassing clouds.6 mph64%29.92 "HgN/A
9:25 PM68 °FSunny.2 mph69%29.92 "Hg10 mi
8:55 PM66 °FSunny.3 mph78%29.92 "Hg10 mi
8:25 PM70 °FPassing clouds.3 mph69%29.92 "HgN/A
7:55 PM70 °FPassing clouds.5 mph69%29.92 "HgN/A
7:25 PM72 °FSunny.7 mph61%29.92 "Hg10 mi
6:55 PM72 °FPassing clouds.8 mph61%29.92 "HgN/A
6:25 PM73 °FPassing clouds.9 mph57%29.92 "HgN/A
5:55 PM73 °FPassing clouds.12 mph61%29.92 "HgN/A
5:25 PM75 °FPassing clouds.12 mph57%29.92 "HgN/A
4:55 PM75 °FPassing clouds.14 mph61%29.92 "HgN/A
4:25 PM75 °FPassing clouds.15 mph57%29.92 "HgN/A
3:55 PM75 °FPassing clouds.14 mph61%29.92 "HgN/A
3:25 PM75 °FScattered clouds.12 mph50%29.95 "HgN/A
2:55 PM77 °FPassing clouds.14 mph51%29.95 "HgN/A
2:25 PM77 °FPassing clouds.15 mph51%29.95 "HgN/A
1:55 PM77 °FPassing clouds.14 mph51%29.95 "HgN/A
1:25 PM75 °FPassing clouds.14 mph54%29.95 "HgN/A
12:55 PM75 °FPassing clouds.14 mph54%29.95 "HgN/A
12:25 PM73 °FPassing clouds.14 mph57%29.95 "HgN/A
11:55 AM73 °FPassing clouds.13 mph57%29.98 "HgN/A
11:25 AM73 °FSunny.14 mph57%29.98 "Hg10 mi
Weather by CustomWeather, © 2014

See weather overviewHow to use our weather pages